Orbital Elements at Epoch 2459000.5 (2020-May-31.0) TDB
Reference: JPL 16 (heliocentric ecliptic J2000)
Element | Value | Uncertainty (1-sigma) | Units |
e | .1910466085535028 | 3.1402e-08 | |
a | 2.66420838963175 | 1.5356e-08 | au |
q | 2.155220412312815 | 8.1969e-08 | au |
i | 11.14557354549875 | 6.8496e-06 | deg |
node | 357.4625322340035 | 1.8795e-05 | deg |
peri | 296.0925698482291 | 2.7272e-05 | deg |
M | 21.69049281042088 | 1.7976e-05 | deg |
tp | 2458904.798745051570 (2020-Feb-25.29874505) | 7.94e-05 | TDB |
period | 1588.36648307422 4.35 | 1.3733e-05 3.76e-08 | d yr |
n | .2266479454434435 | 1.9595e-09 | deg/d |
Q | 3.173196366950685 | 1.829e-08 | au |
|
| | Orbit Determination Parameters
Additional Information
|